Weather History for Council Bluffs, IA

Change the Weather History Date:

Saturday, November 16, 2013

  Actual Average Record
Temperature  
Mean Temperature 54 °F -  
Max Temperature 64 °F 47 °F 77 °F (2001)
Min Temperature 44 °F 30 °F 14 °F (1997)
Degree Days  
Heating Degree Days 11    
Growing Degree Days 4 (Base 50)    
Moisture  
Dew Point 43 °F    
Average Humidity 72    
Maximum Humidity 100    
Minimum Humidity 37    
Precipitation  
Precipitation 0.00 in - - ()
Sea Level Pressure  
Sea Level Pressure 29.40 in    
Wind  
Wind Speed 14 mph (South)    
Max Wind Speed 28 mph    
Max Gust Speed 40 mph    
Visibility 9 miles    
Events      
Averages and records for this station are not official NWS values.
T = Trace of Precipitation, MM = Missing Value Source: NWS Daily Summary

Daily Weather History Graph

Daily Weather History Graph

Search for Another Location

Airport:

Trip Planner

Search our weather history database for the weather conditions in past years. The results will help you decide how hot, cold, wet, or windy it might be!

Date:

Astronomy

Nov. 16, 2013 Rise Set
Actual Time 7:12 AM CST 5:02 PM CST
Civil Twilight 6:42 AM CST 5:32 PM CST
Nautical Twilight 6:09 AM CST 6:05 PM CST
Astronomical Twilight 5:36 AM CST 6:38 PM CST
Moon 4:39 PM CST (11/16) 6:09 AM CST (11/16)
Length of Visible Light 10h 49m
Length of Day
9h 50m
Waxing Gibbous, 99% of the Moon is Illuminated
Nov 16
Waxing Gibbous
Nov 17
Full
Nov 25
Last Quarter
Dec 2
New
Dec 9
First Quarter

Hourly Weather History & Observations

Time (CST) Temp. Windchill Dew Point Humidity Pressure Visibility Wind Dir Wind Speed Gust Speed Precip Events Conditions
12:15 AM 44.6 °F 38.4 °F 42.8 °F 93% 29.61 in 10.0 mi SSE 12.7 mph - N/A   Clear
12:35 AM 44.6 °F 38.1 °F 42.8 °F 93% 29.60 in 10.0 mi SSE 13.8 mph - N/A   Clear
12:55 AM 44.6 °F 38.1 °F 42.8 °F 93% 29.59 in 10.0 mi SSE 13.8 mph - N/A   Clear
1:15 AM 44.6 °F 38.4 °F 42.8 °F 93% 29.58 in 10.0 mi SSE 12.7 mph - N/A   Clear
1:35 AM 44.6 °F 38.1 °F 42.8 °F 93% 29.57 in 10.0 mi SSE 13.8 mph - N/A   Clear
1:55 AM 44.6 °F 38.8 °F 44.6 °F 100% 29.57 in 10.0 mi SSE 11.5 mph 17.3 mph N/A   Clear
2:15 AM 44.6 °F 38.1 °F 44.6 °F 100% 29.55 in 10.0 mi SSE 13.8 mph - N/A   Clear
2:35 AM 44.6 °F 39.2 °F 44.6 °F 100% 29.54 in 10.0 mi SSE 10.4 mph - N/A   Clear
2:55 AM 44.6 °F 38.1 °F 44.6 °F 100% 29.53 in 9.0 mi SSE 13.8 mph - N/A   Clear
3:15 AM 44.6 °F 38.1 °F 44.6 °F 100% 29.52 in 9.0 mi SSE 13.8 mph 19.6 mph N/A   Clear
3:35 AM 46.4 °F 40.1 °F 44.6 °F 93% 29.51 in 9.0 mi SE 15.0 mph - N/A   Clear
3:55 AM 44.6 °F 38.1 °F 44.6 °F 100% 29.50 in 8.0 mi SSE 13.8 mph - N/A   Clear
4:15 AM 44.6 °F 37.8 °F 44.6 °F 100% 29.48 in 7.0 mi SSE 15.0 mph - N/A   Partly Cloudy
4:35 AM 46.4 °F 39.8 °F 46.4 °F 100% 29.48 in 7.0 mi SSE 16.1 mph - N/A   Mostly Cloudy
4:55 AM 46.4 °F 39.2 °F 46.4 °F 100% 29.46 in 6.0 mi SSE 18.4 mph - N/A   Overcast
5:15 AM 46.4 °F 39.5 °F 46.4 °F 100% 29.44 in 6.0 mi SSE 17.3 mph - N/A   Overcast
5:35 AM 48.2 °F - 48.2 °F 100% 29.43 in 6.0 mi SSE 17.3 mph - N/A   Overcast
5:55 AM 48.2 °F - 48.2 °F 100% 29.41 in 6.0 mi SSE 18.4 mph 24.2 mph N/A   Overcast
6:15 AM 50.0 °F - 50.0 °F 100% 29.40 in 7.0 mi SSE 19.6 mph - N/A   Overcast
6:35 AM 50.0 °F - 50.0 °F 100% 29.40 in 7.0 mi SSE 15.0 mph 20.7 mph N/A   Overcast
6:55 AM 50.0 °F - 50.0 °F 100% 29.39 in 7.0 mi South 12.7 mph 21.9 mph N/A   Overcast
7:15 AM 51.8 °F - 51.8 °F 100% 29.39 in 7.0 mi South 15.0 mph 20.7 mph N/A   Overcast
7:35 AM 51.8 °F - 51.8 °F 100% 29.39 in 7.0 mi SSE 16.1 mph - N/A   Overcast
7:55 AM 53.6 °F - 51.8 °F 94% 29.37 in 8.0 mi SSE 15.0 mph 20.7 mph N/A   Overcast
8:15 AM 53.6 °F - 53.6 °F 100% 29.37 in 8.0 mi South 13.8 mph - N/A   Overcast
8:35 AM 55.4 °F - 53.6 °F 94% 29.36 in 10.0 mi South 19.6 mph 26.5 mph N/A   Overcast
8:55 AM 57.2 °F - 53.6 °F 88% 29.36 in 10.0 mi South 16.1 mph 21.9 mph N/A   Overcast
9:15 AM 57.2 °F - 55.4 °F 94% 29.36 in 10.0 mi South 20.7 mph - N/A   Overcast
9:35 AM 57.2 °F - 55.4 °F 94% 29.35 in 10.0 mi South 16.1 mph 28.8 mph N/A   Overcast
9:55 AM 59.0 °F - 55.4 °F 88% 29.35 in 10.0 mi South 19.6 mph 32.2 mph N/A   Mostly Cloudy
10:15 AM 59.0 °F - 53.6 °F 82% 29.35 in 10.0 mi SSW 17.3 mph 26.5 mph N/A   Mostly Cloudy
10:35 AM 60.8 °F - 53.6 °F 77% 29.32 in 10.0 mi South 20.7 mph 29.9 mph N/A   Partly Cloudy
10:55 AM 60.8 °F - 53.6 °F 77% 29.34 in 10.0 mi SSW 19.6 mph 29.9 mph N/A   Partly Cloudy
11:15 AM 60.8 °F - 53.6 °F 77% 29.33 in 10.0 mi SSW 26.5 mph - N/A   Mostly Cloudy
11:35 AM 62.6 °F - 51.8 °F 68% 29.32 in 10.0 mi SSW 27.6 mph 40.3 mph N/A   Overcast
11:55 AM 62.6 °F - 50.0 °F 63% 29.32 in 10.0 mi SSW 21.9 mph 39.1 mph N/A   Overcast
12:15 PM 62.6 °F - 50.0 °F 63% 29.31 in 10.0 mi SW 21.9 mph 39.1 mph N/A   Scattered Clouds
12:35 PM 62.6 °F - 50.0 °F 63% 29.30 in 10.0 mi SSW 24.2 mph 32.2 mph N/A   Partly Cloudy
12:55 PM 62.6 °F - 48.2 °F 59% 29.31 in 10.0 mi SW 25.3 mph 35.7 mph N/A   Clear
1:15 PM 62.6 °F - 46.4 °F 55% 29.31 in 10.0 mi SW 24.2 mph 31.1 mph N/A   Clear
1:35 PM 62.6 °F - 46.4 °F 55% 29.31 in 10.0 mi SW 23.0 mph 31.1 mph N/A   Clear
1:55 PM 64.4 °F - 44.6 °F 49% 29.32 in 10.0 mi SW 19.6 mph 27.6 mph N/A   Clear
2:15 PM 64.4 °F - 42.8 °F 45% 29.32 in 10.0 mi WSW 17.3 mph 24.2 mph N/A   Clear
2:35 PM 64.4 °F - 41.0 °F 42% 29.32 in 10.0 mi SW 17.3 mph - N/A   Clear
2:55 PM 64.4 °F - 39.2 °F 40% 29.33 in 10.0 mi SW 16.1 mph 26.5 mph N/A   Clear
3:15 PM 64.4 °F - 37.4 °F 37% 29.33 in 10.0 mi SW 17.3 mph - N/A   Clear
3:35 PM 64.4 °F - 39.2 °F 40% 29.33 in 10.0 mi SW 13.8 mph 23.0 mph N/A   Clear
3:55 PM 62.6 °F - 37.4 °F 39% 29.34 in 10.0 mi SW 12.7 mph 19.6 mph N/A   Clear
4:15 PM 62.6 °F - 37.4 °F 39% 29.35 in 10.0 mi SW 15.0 mph 24.2 mph N/A   Clear
4:35 PM 60.8 °F - 37.4 °F 42% 29.35 in 10.0 mi WSW 11.5 mph - N/A   Clear
4:55 PM 59.0 °F - 37.4 °F 45% 29.36 in 10.0 mi WSW 10.4 mph - N/A   Clear
5:15 PM 57.2 °F - 35.6 °F 44% 29.38 in 10.0 mi WSW 9.2 mph - N/A   Clear
5:35 PM 55.4 °F - 35.6 °F 47% 29.39 in 9.0 mi SW 8.1 mph - N/A   Clear
5:55 PM 53.6 °F - 35.6 °F 51% 29.40 in 10.0 mi WSW 6.9 mph - N/A   Clear
6:15 PM 55.4 °F - 35.6 °F 47% 29.41 in 10.0 mi SW 6.9 mph - N/A   Clear
6:35 PM 51.8 °F - 35.6 °F 54% 29.41 in 10.0 mi SSW 6.9 mph - N/A   Clear
6:55 PM 55.4 °F - 33.8 °F 44% 29.41 in 10.0 mi SSW 5.8 mph - N/A   Clear
7:15 PM 53.6 °F - 33.8 °F 47% 29.42 in 10.0 mi SW 4.6 mph - N/A   Clear
7:35 PM 53.6 °F - 33.8 °F 47% 29.40 in 10.0 mi SW 4.6 mph - N/A   Clear
7:55 PM 53.6 °F - 33.8 °F 47% 29.40 in 10.0 mi Calm Calm - N/A   Clear
8:15 PM 51.8 °F - 33.8 °F 50% 29.39 in 10.0 mi Calm Calm - N/A   Clear
8:35 PM 53.6 °F - 33.8 °F 47% 29.40 in 10.0 mi NNW 3.5 mph - N/A   Clear
8:55 PM 50.0 °F - 33.8 °F 54% 29.40 in 10.0 mi Calm Calm - N/A   Partly Cloudy
9:15 PM 51.8 °F - 33.8 °F 50% 29.40 in 10.0 mi Calm Calm - N/A   Mostly Cloudy
9:35 PM 48.2 °F - 33.8 °F 58% 29.40 in 10.0 mi SSE 4.6 mph - N/A   Overcast
9:55 PM 48.2 °F - 33.8 °F 58% 29.40 in 10.0 mi ESE 6.9 mph - N/A   Overcast
10:15 PM 48.2 °F - 35.6 °F 62% 29.40 in 10.0 mi SE 6.9 mph - N/A   Overcast
10:35 PM 48.2 °F - 35.6 °F 62% 29.40 in 10.0 mi ESE 8.1 mph - N/A   Overcast
10:55 PM 48.2 °F - 33.8 °F 58% 29.39 in 10.0 mi ESE 8.1 mph - N/A   Mostly Cloudy
11:15 PM 48.2 °F - 33.8 °F 58% 29.39 in 10.0 mi ESE 5.8 mph - N/A   Mostly Cloudy
11:35 PM 50.0 °F - 32.0 °F 50% 29.39 in 10.0 mi ESE 5.8 mph - N/A   Mostly Cloudy
11:55 PM 48.2 °F - 32.0 °F 54% 29.38 in 10.0 mi ESE 6.9 mph - N/A   Mostly Cloudy